EXS2LR LEGE-LIEE

Flight info

Callsign EXS2LR
Flight time 1h 2m
Altitude 32000
Route BGR L16 VERSO M24 LAPIT N725 OSPOK/N0357F180 N725 ORKUM/N0439F330 DCT KOVAS
Aircraft B738/M-SDE2E3FGHIRWXY/LB1

Departure

Time 2026-04-28 22:10
Airport Girona-Costa Brava Airport (LEGE)

Arrival

Time 2026-04-28 23:13
Airport Cagliari Elmas Airport (LIEE)
Time Latitude Longitude Altitude Speed Heading
2026-04-28 21:49 41.89811 2.76458 473 ft 0 kts 105°
2026-04-28 22:01 41.89814 2.76441 473 ft 2 kts 105°
2026-04-28 22:01 41.89818 2.76421 473 ft 2 kts 106°
2026-04-28 22:01 41.89821 2.76408 473 ft 2 kts 97°
2026-04-28 22:02 41.89817 2.76389 473 ft 2 kts 52°
2026-04-28 22:02 41.89807 2.76379 473 ft 0 kts 19°
2026-04-28 22:02 41.89801 2.76377 473 ft 1 kts 14°
2026-04-28 22:02 41.89800 2.76376 473 ft 0 kts 15°
2026-04-28 22:04 41.89811 2.76380 473 ft 5 kts 15°
2026-04-28 22:05 41.89865 2.76383 473 ft 10 kts 330°
2026-04-28 22:05 41.89899 2.76282 473 ft 14 kts 285°
2026-04-28 22:05 41.89974 2.76238 473 ft 16 kts 16°
2026-04-28 22:05 41.90089 2.76283 473 ft 17 kts 16°
2026-04-28 22:06 41.90224 2.76335 473 ft 22 kts 16°
2026-04-28 22:06 41.90381 2.76392 473 ft 22 kts 16°
2026-04-28 22:06 41.90526 2.76448 473 ft 21 kts 16°
2026-04-28 22:06 41.90667 2.76502 473 ft 20 kts 16°
2026-04-28 22:07 41.90768 2.76541 473 ft 20 kts 16°
2026-04-28 22:07 41.90899 2.76589 473 ft 21 kts 15°
2026-04-28 22:07 41.91042 2.76642 473 ft 21 kts 16°
2026-04-28 22:08 41.91163 2.76688 473 ft 20 kts 16°
2026-04-28 22:08 41.91243 2.76719 473 ft 20 kts 16°
2026-04-28 22:08 41.91376 2.76767 473 ft 18 kts
2026-04-28 22:08 41.91492 2.76697 473 ft 17 kts 330°
2026-04-28 22:09 41.91530 2.76594 473 ft 8 kts 213°
2026-04-28 22:09 41.91499 2.76582 473 ft 11 kts 194°
2026-04-28 22:09 41.91177 2.76464 473 ft 83 kts 195°
2026-04-28 22:09 41.90425 2.76181 473 ft 138 kts 196°
2026-04-28 22:10 41.89394 2.75789 656 ft 164 kts 195°
2026-04-28 22:10 41.88284 2.75355 1203 ft 168 kts 195°
2026-04-28 22:10 41.87154 2.74924 1818 ft 171 kts 194°
2026-04-28 22:10 41.86217 2.74564 2269 ft 173 kts 197°
2026-04-28 22:11 41.85032 2.74114 2715 ft 180 kts 195°
2026-04-28 22:11 41.83839 2.73684 3315 ft 178 kts 195°
2026-04-28 22:11 41.82623 2.73313 3770 ft 184 kts 183°
2026-04-28 22:11 41.81369 2.73783 4054 ft 198 kts 142°
2026-04-28 22:12 41.80551 2.75290 4439 ft 207 kts 108°
2026-04-28 22:12 41.80451 2.77322 4626 ft 231 kts 80°
2026-04-28 22:12 41.80830 2.79501 5126 ft 241 kts 75°
2026-04-28 22:12 41.81273 2.81636 6003 ft 234 kts 74°
2026-04-28 22:13 41.81693 2.83712 6683 ft 236 kts 76°
2026-04-28 22:13 41.82058 2.85879 7263 ft 241 kts 79°
2026-04-28 22:13 41.82368 2.88051 7917 ft 243 kts 79°
2026-04-28 22:13 41.82693 2.90287 8558 ft 245 kts 78°
2026-04-28 22:14 41.83040 2.92512 9171 ft 247 kts 77°
2026-04-28 22:14 41.83563 2.94712 9734 ft 252 kts 65°
2026-04-28 22:14 41.84409 2.96830 10084 ft 266 kts 59°
2026-04-28 22:14 41.85401 2.98996 10415 ft 281 kts 58°
2026-04-28 22:15 41.86447 3.01263 10652 ft 283 kts 59°
2026-04-28 22:15 41.87442 3.03519 10686 ft 291 kts 60°
2026-04-28 22:15 41.88477 3.05961 11005 ft 306 kts 60°
2026-04-28 22:15 41.89544 3.08497 11558 ft 313 kts 60°
2026-04-28 22:16 41.90604 3.11055 12178 ft 318 kts 63°
2026-04-28 22:16 41.91402 3.13814 12809 ft 321 kts 77°
2026-04-28 22:16 41.91560 3.16791 13464 ft 324 kts 95°
2026-04-28 22:16 41.91074 3.19763 14125 ft 327 kts 109°
2026-04-28 22:17 41.90151 3.22520 14759 ft 331 kts 121°
2026-04-28 22:17 41.88685 3.24876 15416 ft 333 kts 140°
2026-04-28 22:17 41.86750 3.26570 16067 ft 336 kts 151°
2026-04-28 22:17 41.84664 3.28029 16690 ft 339 kts 153°
2026-04-28 22:18 41.82547 3.29469 17306 ft 342 kts 153°
2026-04-28 22:18 41.80441 3.30904 17905 ft 346 kts 153°
2026-04-28 22:18 41.78274 3.32390 18504 ft 349 kts 152°
2026-04-28 22:18 41.76129 3.33870 19079 ft 352 kts 152°
2026-04-28 22:19 41.73953 3.35376 19645 ft 355 kts 152°
2026-04-28 22:19 41.71737 3.36912 20203 ft 358 kts 152°
2026-04-28 22:19 41.69539 3.38436 20737 ft 361 kts 152°
2026-04-28 22:19 41.67309 3.39981 21260 ft 364 kts 152°
2026-04-28 22:20 41.65048 3.41547 21773 ft 367 kts 152°
2026-04-28 22:20 41.62774 3.43120 22270 ft 369 kts 152°
2026-04-28 22:20 41.60503 3.44687 22753 ft 372 kts 152°
2026-04-28 22:20 41.58184 3.46287 23229 ft 375 kts 152°
2026-04-28 22:21 41.55876 3.47880 23682 ft 378 kts 152°
2026-04-28 22:21 41.53531 3.49496 24132 ft 380 kts 152°
2026-04-28 22:21 41.51171 3.51122 24573 ft 383 kts 152°
2026-04-28 22:21 41.48817 3.52743 24996 ft 385 kts 152°
2026-04-28 22:22 41.46436 3.54381 25411 ft 388 kts 152°
2026-04-28 22:22 41.44009 3.56050 25824 ft 390 kts 152°
2026-04-28 22:22 41.41622 3.57689 26219 ft 393 kts 152°
2026-04-28 22:22 41.39166 3.59375 26611 ft 395 kts 152°
2026-04-28 22:23 41.36736 3.61041 26987 ft 398 kts 152°
2026-04-28 22:23 41.34265 3.62733 27361 ft 400 kts 152°
2026-04-28 22:23 41.31788 3.64428 27726 ft 402 kts 152°
2026-04-28 22:23 41.29281 3.66142 28082 ft 404 kts 153°
2026-04-28 22:24 41.26769 3.67858 28428 ft 407 kts 153°
2026-04-28 22:24 41.24250 3.69577 28767 ft 409 kts 153°
2026-04-28 22:24 41.21742 3.71288 29096 ft 411 kts 153°
2026-04-28 22:24 41.19232 3.73177 29412 ft 413 kts 147°
2026-04-28 22:25 41.16926 3.75477 29714 ft 415 kts 137°
2026-04-28 22:25 41.14955 3.78254 30020 ft 417 kts 128°
2026-04-28 22:25 41.13298 3.81412 30324 ft 419 kts 121°
2026-04-28 22:25 41.11877 3.84736 30615 ft 421 kts 118°
2026-04-28 22:26 41.10560 3.88195 30902 ft 423 kts 116°
2026-04-28 22:26 41.09279 3.91750 31192 ft 425 kts 115°
2026-04-28 22:26 41.08033 3.95283 31475 ft 427 kts 115°
2026-04-28 22:26 41.06781 3.98838 31752 ft 429 kts 115°
2026-04-28 22:27 41.05521 4.02390 32021 ft 431 kts 115°
2026-04-28 22:27 41.04235 4.05987 32288 ft 432 kts 115°
2026-04-28 22:27 41.02940 4.09579 32552 ft 434 kts 115°
2026-04-28 22:27 41.01639 4.13168 32810 ft 436 kts 115°
2026-04-28 22:28 41.00326 4.16768 32991 ft 435 kts 115°
2026-04-28 22:28 40.97721 4.23882 33001 ft 426 kts 116°
2026-04-28 22:29 40.95130 4.30919 33001 ft 426 kts 116°
2026-04-28 22:29 40.92537 4.37949 33001 ft 426 kts 116°
2026-04-28 22:30 40.90037 4.45042 33000 ft 426 kts 111°
2026-04-28 22:30 40.88262 4.52342 33001 ft 426 kts 104°
2026-04-28 22:31 40.86822 4.59948 33001 ft 426 kts 103°
2026-04-28 22:31 40.85513 4.67524 33000 ft 426 kts 100°
2026-04-28 22:32 40.84682 4.75294 33001 ft 426 kts 96°
2026-04-28 22:32 40.84049 4.83049 33000 ft 426 kts 96°
2026-04-28 22:33 40.83399 4.90846 33001 ft 425 kts 96°
2026-04-28 22:33 40.82717 4.98522 33001 ft 425 kts 97°
2026-04-28 22:34 40.82000 5.06264 33001 ft 425 kts 97°
2026-04-28 22:34 40.81267 5.14008 33001 ft 425 kts 97°
2026-04-28 22:35 40.80528 5.21726 33001 ft 425 kts 97°
2026-04-28 22:35 40.79783 5.29436 33001 ft 425 kts 97°
2026-04-28 22:36 40.79033 5.37139 33001 ft 425 kts 97°
2026-04-28 22:36 40.78275 5.44869 33001 ft 425 kts 97°
2026-04-28 22:37 40.77515 5.52569 33001 ft 425 kts 97°
2026-04-28 22:37 40.76749 5.60272 33001 ft 425 kts 97°
2026-04-28 22:38 40.75978 5.67976 33001 ft 425 kts 97°
2026-04-28 22:38 40.75202 5.75678 33001 ft 425 kts 97°
2026-04-28 22:39 40.74416 5.83421 33001 ft 425 kts 97°
2026-04-28 22:39 40.73634 5.91087 33001 ft 425 kts 97°
2026-04-28 22:40 40.72840 5.98802 33001 ft 425 kts 97°
2026-04-28 22:40 40.72047 6.06466 33001 ft 425 kts 97°
2026-04-28 22:41 40.71246 6.14155 33001 ft 425 kts 97°
2026-04-28 22:41 40.70438 6.21848 33001 ft 425 kts 98°
2026-04-28 22:42 40.69620 6.29566 33001 ft 425 kts 98°
2026-04-28 22:42 40.68800 6.37255 33001 ft 425 kts 98°
2026-04-28 22:43 40.67979 6.44911 33001 ft 425 kts 98°
2026-04-28 22:43 40.67151 6.52588 33001 ft 425 kts 98°
2026-04-28 22:44 40.66314 6.60292 33001 ft 425 kts 98°
2026-04-28 22:44 40.65498 6.67768 33001 ft 425 kts 98°
2026-04-28 22:45 40.64645 6.75524 33001 ft 425 kts 98°
2026-04-28 22:45 40.63791 6.83241 33001 ft 425 kts 98°
2026-04-28 22:46 40.62938 6.90905 33001 ft 425 kts 98°
2026-04-28 22:46 40.62076 6.98602 33001 ft 425 kts 98°
2026-04-28 22:47 40.61211 7.06283 33001 ft 425 kts 98°
2026-04-28 22:47 40.60346 7.13909 33001 ft 425 kts 98°
2026-04-28 22:48 40.59472 7.21570 33001 ft 425 kts 98°
2026-04-28 22:48 40.58588 7.29271 33001 ft 425 kts 98°
2026-04-28 22:49 40.57707 7.36903 33001 ft 425 kts 98°
2026-04-28 22:49 40.56714 7.44543 33000 ft 425 kts 103°
2026-04-28 22:50 40.54471 7.51693 33003 ft 425 kts 121°
2026-04-28 22:50 40.51083 7.58062 33000 ft 425 kts 126°
2026-04-28 22:51 40.47521 7.64209 33001 ft 425 kts 127°
2026-04-28 22:51 40.43971 7.70322 32793 ft 418 kts 127°
2026-04-28 22:51 40.42327 7.73169 32419 ft 418 kts 127°
2026-04-28 22:52 40.40573 7.76219 31956 ft 415 kts 127°
2026-04-28 22:52 40.38833 7.79254 31487 ft 412 kts 127°
2026-04-28 22:52 40.37130 7.82229 31025 ft 409 kts 127°
2026-04-28 22:52 40.35467 7.85138 30568 ft 408 kts 127°
2026-04-28 22:53 40.33750 7.88142 30095 ft 410 kts 127°
2026-04-28 22:53 40.32064 7.91088 29628 ft 406 kts 127°
2026-04-28 22:53 40.30382 7.94029 29160 ft 403 kts 127°
2026-04-28 22:53 40.28703 7.96962 28693 ft 400 kts 127°
2026-04-28 22:54 40.27043 7.99862 28227 ft 396 kts 127°
2026-04-28 22:54 40.25413 8.02704 27770 ft 393 kts 127°
2026-04-28 22:54 40.23771 8.05566 27306 ft 390 kts 127°
2026-04-28 22:54 40.22141 8.08404 26850 ft 389 kts 127°
2026-04-28 22:55 40.20543 8.11184 26388 ft 386 kts 127°
2026-04-28 22:55 40.18935 8.13978 25734 ft 389 kts 127°
2026-04-28 22:55 40.17297 8.16821 24985 ft 393 kts 127°
2026-04-28 22:55 40.15640 8.19695 24231 ft 397 kts 127°
2026-04-28 22:56 40.13999 8.22537 23490 ft 400 kts 127°
2026-04-28 22:56 40.12317 8.25448 22736 ft 403 kts 127°
2026-04-28 22:56 40.10623 8.28377 21992 ft 406 kts 127°
2026-04-28 22:56 40.08922 8.31314 21285 ft 407 kts 127°
2026-04-28 22:57 40.07225 8.34242 20538 ft 409 kts 127°
2026-04-28 22:57 40.05506 8.37208 19929 ft 406 kts 127°
2026-04-28 22:57 40.03825 8.40104 19670 ft 394 kts 127°
2026-04-28 22:57 40.02204 8.42897 19414 ft 384 kts 127°
2026-04-28 22:58 40.00619 8.45623 19162 ft 373 kts 127°
2026-04-28 22:58 39.99065 8.48295 18913 ft 364 kts 127°
2026-04-28 22:58 39.97557 8.50887 18663 ft 354 kts 127°
2026-04-28 22:58 39.96081 8.53421 18411 ft 346 kts 127°
2026-04-28 22:59 39.94639 8.55897 18160 ft 338 kts 127°
2026-04-28 22:59 39.93246 8.58287 17911 ft 330 kts 127°
2026-04-28 22:59 39.91865 8.60652 17659 ft 323 kts 127°
2026-04-28 22:59 39.90515 8.62963 17407 ft 316 kts 127°
2026-04-28 23:00 39.89210 8.65194 17148 ft 310 kts 127°
2026-04-28 23:00 39.87911 8.67414 16775 ft 308 kts 127°
2026-04-28 23:00 39.86621 8.69615 16387 ft 306 kts 127°
2026-04-28 23:00 39.85323 8.71831 15993 ft 305 kts 127°
2026-04-28 23:01 39.84098 8.73918 15621 ft 304 kts 127°
2026-04-28 23:01 39.82832 8.76074 15234 ft 302 kts 127°
2026-04-28 23:01 39.81549 8.78259 14843 ft 301 kts 127°
2026-04-28 23:01 39.80283 8.80411 14459 ft 300 kts 127°
2026-04-28 23:02 39.79021 8.82557 14075 ft 298 kts 127°
2026-04-28 23:02 39.77758 8.84703 13688 ft 297 kts 127°
2026-04-28 23:02 39.76513 8.86816 13310 ft 295 kts 127°
2026-04-28 23:02 39.75265 8.88934 12929 ft 294 kts 127°
2026-04-28 23:03 39.74033 8.91022 12554 ft 292 kts 127°
2026-04-28 23:03 39.72797 8.93115 12179 ft 291 kts 127°
2026-04-28 23:03 39.71567 8.95199 11806 ft 290 kts 127°
2026-04-28 23:03 39.70359 8.97242 11435 ft 288 kts 127°
2026-04-28 23:04 39.69138 8.99306 11064 ft 287 kts 127°
2026-04-28 23:04 39.66718 9.03396 10329 ft 284 kts 127°
2026-04-28 23:04 39.65480 9.05329 10109 ft 277 kts 135°
2026-04-28 23:05 39.63950 9.06759 9984 ft 265 kts 158°
2026-04-28 23:05 39.62155 9.07251 9526 ft 269 kts 178°
2026-04-28 23:05 39.60273 9.07252 9057 ft 272 kts 180°
2026-04-28 23:05 39.58364 9.07237 8639 ft 272 kts 180°
2026-04-28 23:06 39.56490 9.07256 8356 ft 263 kts 179°
2026-04-28 23:06 39.54700 9.07285 8118 ft 253 kts 181°
2026-04-28 23:06 39.52996 9.07044 7871 ft 244 kts 197°
2026-04-28 23:06 39.51514 9.06058 7544 ft 239 kts 217°
2026-04-28 23:07 39.50217 9.04708 7049 ft 242 kts 219°
2026-04-28 23:07 39.48853 9.03285 6023 ft 265 kts 218°
2026-04-28 23:07 39.47343 9.01807 4978 ft 282 kts 216°
2026-04-28 23:07 39.45741 9.00290 4003 ft 292 kts 216°
2026-04-28 23:08 39.44134 8.98787 3516 ft 282 kts 216°
2026-04-28 23:08 39.42579 8.97332 3016 ft 276 kts 216°
2026-04-28 23:08 39.41033 8.95883 2607 ft 266 kts 216°
2026-04-28 23:08 39.39587 8.94526 2507 ft 246 kts 216°
2026-04-28 23:09 39.38202 8.93411 2447 ft 227 kts 204°
2026-04-28 23:09 39.36722 8.93018 2417 ft 209 kts 173°
2026-04-28 23:09 39.35399 8.93628 2269 ft 196 kts 146°
2026-04-28 23:09 39.34428 8.94651 2252 ft 167 kts 137°
2026-04-28 23:10 39.33611 8.95609 2078 ft 152 kts 137°
2026-04-28 23:10 39.32850 8.96549 1874 ft 152 kts 136°
2026-04-28 23:10 39.32066 8.97484 1713 ft 154 kts 138°
2026-04-28 23:10 39.31265 8.98379 1548 ft 150 kts 140°
2026-04-28 23:11 39.30470 8.99259 1319 ft 152 kts 139°
2026-04-28 23:11 39.29685 9.00152 1166 ft 149 kts 136°
2026-04-28 23:11 39.28925 9.01074 899 ft 151 kts 138°
2026-04-28 23:11 39.28133 9.01975 655 ft 151 kts 138°
2026-04-28 23:12 39.27349 9.02885 423 ft 148 kts 138°
2026-04-28 23:12 39.26584 9.03763 193 ft 148 kts 138°
2026-04-28 23:12 39.25819 9.04654 27 ft 142 kts 138°
2026-04-28 23:12 39.25221 9.05345 21 ft 82 kts 137°
2026-04-28 23:13 39.24930 9.05684 21 ft 40 kts 138°
2026-04-28 23:13 39.24750 9.05890 21 ft 29 kts 139°
2026-04-28 23:13 39.24676 9.06003 21 ft 13 kts 99°
2026-04-28 23:13 39.24704 9.06119 21 ft 13 kts 62°
2026-04-28 23:14 39.24790 9.06116 21 ft 18 kts 318°
2026-04-28 23:14 39.24887 9.06004 21 ft 18 kts 317°
2026-04-28 23:14 39.24979 9.05896 21 ft 17 kts 317°
2026-04-28 23:14 39.25068 9.05793 21 ft 16 kts 319°
2026-04-28 23:15 39.25151 9.05837 21 ft 15 kts 69°
2026-04-28 23:15 39.25168 9.05963 21 ft 12 kts 60°
2026-04-28 23:15 39.25146 9.06008 21 ft 6 kts 145°
2026-04-28 23:15 39.25126 9.06028 21 ft 0 kts 140°